Date String (YYYY-MM-DD hh:mm:ss) UTC,Instrument flags,absolute air pressure of the measurement (hPa),sample flow rate (lpm),inlet stack bypass flow (lpm),air temperature of the measurement (°C),ambient temperature measured by the external sensor (°C),aerosol sample conditioner tube jacket temperature (°C),OPC LED temperature (°C),internal box temperature (°C),relative humidity of the measurement (%),span deviation,mass concentration of particles derived from Lorenz-Mie calculation of OPC scattering (μg/m³),mass concentration of particles derived from Lorenz-Mie calculation of OPC scattering (μg/m³),mass concentration of particles derived from Lorenz-Mie calculation of OPC scattering (μg/m³)
DateTimeUTC,F1_M11,P_M11,Q1_M11,Q2_M11,T1_M11,T2_M11,T3_M11,T4_M11,T5_M11,U1_M11,ZSPAN_M11,X2_M11,X0_M11,X1_M11
2023-07-13 22:00:00,SystemResetWarning,0829.5,5.00,000.00,028.7,027.3,000.0,036.9,030.4,20.6,0000.0,0004.74,0015.45,0003.94
2023-07-13 22:01:00,SystemResetWarning,0829.5,4.99,000.00,028.7,027.1,000.0,036.9,030.4,22.3,0000.0,0004.72,0014.82,0003.94
2023-07-13 22:02:00,SystemResetWarning,0829.4,4.99,000.00,028.7,025.4,000.0,036.8,030.2,21.6,0000.0,0004.71,0014.27,0003.93
2023-07-13 22:03:00,SystemResetWarning,0829.4,5.01,000.00,028.6,024.7,000.0,036.8,030.1,20.9,0000.0,0004.70,0014.17,0003.91
2023-07-13 22:04:00,SystemResetWarning,0829.5,5.01,000.00,028.6,025.1,000.0,036.8,030.0,20.8,0000.0,0004.72,0014.58,0003.92
2023-07-13 22:05:00,SystemResetWarning,0829.5,5.00,000.00,028.5,025.5,000.0,036.8,030.0,20.7,0000.0,0004.72,0014.71,0003.91
2023-07-13 22:06:00,SystemResetWarning,0829.6,5.00,000.00,028.5,026.0,000.0,036.8,030.1,20.2,0000.0,0004.75,0014.17,0003.91
2023-07-13 22:07:00,SystemResetWarning,0829.6,5.00,000.00,028.6,026.4,000.0,036.9,030.2,19.8,0000.0,0004.73,0013.24,0003.90
2023-07-13 22:08:00,SystemResetWarning,0829.7,4.99,000.00,028.6,026.8,000.0,036.9,030.3,20.2,0000.0,0004.71,0013.28,0003.89
2023-07-13 22:09:00,SystemResetWarning,0829.7,5.00,000.00,028.7,027.2,000.0,036.9,030.4,20.9,0000.0,0004.73,0012.68,0003.89
2023-07-13 22:10:00,SystemResetWarning,0829.7,5.00,000.00,028.7,027.5,000.0,037.0,030.5,20.1,0000.0,0004.74,0013.23,0003.89
2023-07-13 22:11:00,SystemResetWarning,0829.7,4.98,000.00,028.7,026.6,000.0,036.9,030.4,20.5,0000.0,0004.72,0013.14,0003.89
2023-07-13 22:12:00,SystemResetWarning,0829.6,5.00,000.00,028.7,025.1,000.0,036.8,030.1,21.0,0000.0,0004.71,0011.89,0003.89
2023-07-13 22:13:00,SystemResetWarning,0829.6,5.00,000.00,028.6,025.0,000.0,036.8,030.1,19.6,0000.0,0004.70,0011.85,0003.89
2023-07-13 22:14:00,SystemResetWarning,0829.6,5.01,000.00,028.6,025.3,000.0,036.8,030.0,20.5,0000.0,0004.71,0011.92,0003.90
2023-07-13 22:15:00,SystemResetWarning,0829.6,5.00,000.00,028.6,025.8,000.0,036.8,030.1,21.8,0000.0,0004.69,0011.22,0003.90
2023-07-13 22:16:00,SystemResetWarning,0829.6,5.00,000.00,028.6,026.3,000.0,036.9,030.2,22.3,0000.0,0004.67,0011.43,0003.91
2023-07-13 22:17:00,SystemResetWarning,0829.6,5.00,000.00,028.6,026.7,000.0,036.9,030.3,20.3,0000.0,0004.61,0011.13,0003.91
2023-07-13 22:18:00,SystemResetWarning,0829.6,5.00,000.00,028.7,027.1,000.0,036.9,030.4,20.5,0000.0,0004.58,0012.22,0003.92
2023-07-13 22:19:00,SystemResetWarning,0829.6,5.00,000.00,028.7,027.4,000.0,037.0,030.5,20.0,0000.0,0004.61,0012.61,0003.94
2023-07-13 22:20:00,SystemResetWarning,0829.6,4.99,000.00,028.8,026.6,000.0,036.9,030.4,20.3,0000.0,0004.57,0013.10,0003.94
2023-07-13 22:21:00,SystemResetWarning,0829.5,5.00,000.00,028.7,025.0,000.0,036.8,030.2,20.2,0000.0,0004.56,0012.99,0003.94
2023-07-13 22:22:00,SystemResetWarning,0829.5,5.01,000.00,028.6,024.8,000.0,036.8,030.1,20.3,0000.0,0004.59,0013.31,0003.95
2023-07-13 22:23:00,SystemResetWarning,0829.5,5.00,000.00,028.6,025.2,000.0,036.8,030.0,20.5,0000.0,0004.60,0014.02,0003.95
2023-07-13 22:24:00,SystemResetWarning,0829.6,5.00,000.00,028.6,025.7,000.0,036.8,030.0,21.8,0000.0,0004.65,0015.69,0003.96
2023-07-13 22:25:00,SystemResetWarning,0829.6,5.00,000.00,028.6,026.2,000.0,036.9,030.1,22.2,0000.0,0004.73,0016.77,0003.96
2023-07-13 22:26:00,SystemResetWarning,0829.6,5.00,000.00,028.6,026.6,000.0,036.9,030.3,22.1,0000.0,0004.78,0017.39,0003.96
2023-07-13 22:27:00,SystemResetWarning,0829.6,5.00,000.00,028.7,027.0,000.0,036.9,030.4,21.5,0000.0,0004.82,0018.09,0003.96
2023-07-13 22:28:00,SystemResetWarning,0829.6,5.01,000.00,028.7,027.3,000.0,037.0,030.4,20.7,0000.0,0004.86,0019.11,0003.96
2023-07-13 22:29:00,SystemResetWarning,0829.6,4.99,000.00,028.7,026.7,000.0,036.9,030.4,22.0,0000.0,0004.88,0018.86,0003.96
2023-07-13 22:30:00,SystemResetWarning,0829.6,5.00,000.00,028.7,025.1,000.0,036.8,030.1,21.4,0000.0,0004.90,0019.53,0003.94
2023-07-13 22:31:00,SystemResetWarning,0829.6,5.02,000.00,028.6,024.8,000.0,036.7,030.0,19.9,0000.0,0004.93,0019.68,0003.94
2023-07-13 22:32:00,SystemResetWarning,0829.6,4.99,000.00,028.6,025.1,000.0,036.8,029.9,19.9,0000.0,0005.02,0020.34,0003.97
2023-07-13 22:33:00,SystemResetWarning,0829.6,5.00,000.00,028.5,025.6,000.0,036.8,030.0,19.7,0000.0,0005.07,0021.14,0003.98
2023-07-13 22:34:00,SystemResetWarning,0829.7,5.00,000.00,028.5,026.0,000.0,036.9,030.1,19.9,0000.0,0005.15,0021.32,0004.00
2023-07-13 22:35:00,SystemResetWarning,0829.7,5.00,000.00,028.6,026.5,000.0,036.9,030.2,19.9,0000.0,0005.23,0020.72,0004.00
2023-07-13 22:36:00,SystemResetWarning,0829.7,5.00,000.00,028.6,026.9,000.0,036.9,030.3,20.5,0000.1,0005.29,0020.50,0004.00
2023-07-13 22:37:00,SystemResetWarning,0829.7,5.01,000.00,028.7,027.3,000.0,036.9,030.4,20.6,0000.0,0005.28,0020.42,0004.01
2023-07-13 22:38:00,SystemResetWarning,0829.7,4.99,000.00,028.7,026.7,000.0,036.9,030.4,21.1,0000.0,0005.31,0020.04,0004.01
2023-07-13 22:39:00,SystemResetWarning,0829.7,4.99,000.00,028.7,025.1,000.0,036.8,030.1,21.0,0000.0,0005.36,0019.54,0004.02
2023-07-13 22:40:00,SystemResetWarning,0829.7,5.02,000.00,028.6,024.7,000.0,036.7,030.0,21.4,0000.0,0005.36,0018.58,0004.03
2023-07-13 22:41:00,SystemResetWarning,0829.8,4.99,000.00,028.5,025.1,000.0,036.7,029.9,21.3,0000.0,0005.35,0017.91,0004.06
2023-07-13 22:42:00,SystemResetWarning,0829.8,4.99,000.00,028.5,025.5,000.0,036.8,029.9,21.1,0000.0,0005.33,0016.70,0004.08
2023-07-13 22:43:00,SystemResetWarning,0829.9,5.01,000.00,028.5,026.0,000.0,036.8,030.0,21.1,0000.0,0005.28,0015.93,0004.07
2023-07-13 22:44:00,SystemResetWarning,0830.0,5.01,000.00,028.6,026.4,000.0,036.8,030.2,22.5,0000.0,0005.29,0015.16,0004.07
2023-07-13 22:45:00,SystemResetWarning,0830.1,4.99,000.00,028.6,026.8,000.0,036.9,030.3,22.2,0000.0,0005.26,0014.69,0004.05
2023-07-13 22:46:00,SystemResetWarning,0830.1,5.00,000.00,028.6,027.2,000.0,036.9,030.4,21.7,0000.0,0005.19,0014.50,0004.05
2023-07-13 22:47:00,SystemResetWarning,0830.1,5.00,000.00,028.7,027.4,000.0,036.9,030.4,21.8,0000.0,0005.10,0014.47,0004.05
2023-07-13 22:48:00,SystemResetWarning,0830.1,4.99,000.00,028.7,026.1,000.0,036.9,030.2,23.0,0000.0,0005.07,0013.46,0004.05
2023-07-13 22:49:00,SystemResetWarning,0830.1,5.00,000.00,028.6,024.7,000.0,036.8,030.0,23.4,0000.0,0005.04,0013.24,0004.07
2023-07-13 22:50:00,SystemResetWarning,0830.1,5.01,000.00,028.6,024.8,000.0,036.7,029.9,23.2,0000.0,0004.99,0012.94,0004.07
2023-07-13 22:51:00,SystemResetWarning,0830.2,5.01,000.00,028.5,025.2,000.0,036.8,029.9,22.2,0000.0,0005.02,0013.17,0004.08
2023-07-13 22:52:00,SystemResetWarning,0830.1,4.99,000.00,028.5,025.6,000.0,036.8,029.9,20.4,0000.0,0005.06,0013.67,0004.06
2023-07-13 22:53:00,SystemResetWarning,0830.0,5.00,000.00,028.5,026.1,000.0,036.8,030.1,20.0,0000.0,0005.06,0013.92,0004.04
2023-07-13 22:54:00,SystemResetWarning,0830.0,5.00,000.00,028.5,026.6,000.0,036.9,030.2,20.4,0000.0,0005.05,0014.35,0004.03
2023-07-13 22:55:00,SystemResetWarning,0830.1,4.99,000.00,028.6,027.0,000.0,036.9,030.3,19.7,0000.0,0004.98,0013.74,0004.02
2023-07-13 22:56:00,SystemResetWarning,0830.2,4.99,000.00,028.7,027.3,000.0,036.9,030.4,19.8,0000.0,0004.98,0013.83,0004.02
2023-07-13 22:57:00,SystemResetWarning,0830.2,5.00,000.00,028.7,027.5,000.0,036.9,030.5,19.1,0000.0,0005.01,0013.36,0004.02
2023-07-13 22:58:00,SystemResetWarning,0830.2,4.99,000.00,028.7,026.5,000.0,036.9,030.4,19.2,0000.0,0004.97,0012.57,0004.03
2023-07-13 22:59:00,SystemResetWarning,0830.2,5.00,000.00,028.7,024.9,000.0,036.8,030.1,19.5,0000.0,0004.97,0012.73,0004.04
